* Astronomy

Members Login
Username 
 
Password 
    Remember Me  
Post Info TOPIC: Asteroid 2004 RR109


L

Posts: 131433
Date:
Asteroid 2004 RR109
Permalink  
 


Orbital elements:
2004 RR109
Epoch 2010 July 23.0 TT = JDT 2455400.5 MPC
M 26.15122 (2000.0) P Q
n 0.16612070 Peri. 267.79296 -0.12562558 +0.98592603
a 3.2773303 Node 351.90363 -0.24802667 -0.13887153
e 0.5526623 Incl. 51.55731 -0.96057326 -0.09308367
P 5.93 H 17.5 G 0.15 U 3

MPEC 2010 - N59



__________________
Page 1 of 1  sorted by
 
Quick Reply

Please log in to post quick replies.



Create your own FREE Forum
Report Abuse
Powered by ActiveBoard